Weather History for PHBK - July, 2013

Change the Weather History Date:

Monday, July 22, 2013

  Actual Average Record
Temperature  
Mean Temperature 78 °F -  
Max Temperature 84 °F 87 °F 93 °F (1968)
Min Temperature 71 °F 66 °F 65 °F (1973)
Cooling Degree Days 12    
Growing Degree Days 28 (Base 50)    
Moisture  
Dew Point 66 °F    
Average Humidity 65    
Maximum Humidity 76    
Minimum Humidity 56    
Precipitation  
Precipitation 0.00 in - - ()
Sea Level Pressure  
Sea Level Pressure 29.99 in    
Wind  
Wind Speed 5 mph (NNW)    
Max Wind Speed 9 mph    
Max Gust Speed -    
Visibility 10 miles    
Events      
Averages and records for this station are not official NWS values.
T = Trace of Precipitation, MM = Missing Value Source: NWS Daily Summary

Daily Weather History Graph

Daily Weather History Graph

Search for Another Location

Airport or City:

Trip Planner

Search our weather history database for the weather conditions in past years. The results will help you decide how hot, cold, wet, or windy it might be!

Date:

Astronomy

Jul. 22, 2013 Rise Set
Actual Time 6:07 AM HST 7:23 PM HST
Civil Twilight 5:43 AM HST 7:47 PM HST
Nautical Twilight 5:14 AM HST 8:16 PM HST
Astronomical Twilight 4:44 AM HST 8:46 PM HST
Moon 7:31 PM HST (7/22) 6:09 AM HST (7/22)
Length of Visible Light 14h 04m
Length of Day
13h 15m
Full, 100% of the Moon is Illuminated
Jul 22
Full
Jul 29
Last Quarter
Aug 6
New
Aug 14
First Quarter
Aug 20
Full

Hourly Weather History & Observations

Time (HST) Temp. Heat Index Dew Point Humidity Pressure Visibility Wind Dir Wind Speed Gust Speed Precip Events Conditions
1:56 AM 72.0 °F - 63.0 °F 73% 30.01 in 10.0 mi East 3.5 mph - N/A   Clear
2:56 AM 72.0 °F - 64.0 °F 76% 29.99 in 10.0 mi East 3.5 mph - N/A   Partly Cloudy
3:56 AM 72.0 °F - 61.0 °F 68% 29.99 in 10.0 mi ENE 6.9 mph - N/A   Clear
4:56 AM 71.1 °F - 60.1 °F 68% 29.99 in 10.0 mi ENE 4.6 mph - N/A   Clear
5:56 AM 71.1 °F - 59.0 °F 66% 30.00 in 10.0 mi ENE 4.6 mph - N/A   Clear
6:56 AM 73.9 °F - 62.1 °F 66% 30.00 in 10.0 mi ENE 4.6 mph - N/A   Clear
7:56 AM 79.0 °F - 66.9 °F 66% 30.01 in 10.0 mi North 3.5 mph - N/A   Clear
8:56 AM 79.0 °F - 68.0 °F 69% 30.02 in 10.0 mi NW 5.8 mph - N/A   Clear
9:56 AM 80.1 °F 82.3 °F 66.9 °F 64% 30.02 in 10.0 mi WNW 6.9 mph - N/A   Clear
10:56 AM 82.0 °F 84.5 °F 66.9 °F 60% 30.02 in 10.0 mi WSW 5.8 mph - N/A   Clear
11:56 AM 82.0 °F 84.1 °F 66.0 °F 58% 30.00 in 10.0 mi WSW 8.1 mph - N/A   Clear
12:56 PM 82.9 °F 85.0 °F 66.0 °F 56% 29.99 in 10.0 mi West 8.1 mph - N/A   Clear
1:56 PM 82.9 °F 85.0 °F 66.0 °F 56% 29.98 in 10.0 mi West 9.2 mph - N/A   Clear
2:56 PM 84.0 °F 86.5 °F 66.9 °F 56% 29.97 in 10.0 mi NW 9.2 mph - N/A   Clear
3:56 PM 82.9 °F 85.8 °F 68.0 °F 60% 29.97 in 10.0 mi NW 9.2 mph - N/A   Clear
4:56 PM 82.9 °F 85.8 °F 68.0 °F 60% 29.96 in 10.0 mi NNW 6.9 mph - N/A   Clear
5:56 PM 82.9 °F 85.0 °F 66.0 °F 56% 29.96 in 10.0 mi NW 3.5 mph - N/A   Clear
6:56 PM 82.0 °F 84.1 °F 66.0 °F 58% 29.96 in 10.0 mi NW 3.5 mph - N/A   Clear
7:56 PM 80.1 °F 82.7 °F 68.0 °F 67% 29.98 in 10.0 mi SW 3.5 mph - N/A   Clear
8:56 PM 78.1 °F - 66.9 °F 68% 30.00 in 10.0 mi SE 6.9 mph - N/A   Clear
9:56 PM 78.1 °F - 68.0 °F 71% 30.01 in 10.0 mi SE 3.5 mph - N/A   Mostly Cloudy
10:56 PM 75.9 °F - 66.9 °F 74% 30.02 in 10.0 mi Calm Calm - N/A   Clear
11:56 PM 75.9 °F - 66.0 °F 71% 30.02 in 10.0 mi ENE 4.6 mph - N/A   Clear